Location: Hobi?a Gr?di?te
(45.4833°N, 22.7833°E)
Time: 05:34:55
(UTC+00:00)

Okean O Rocket - Pass Details

Date: 28 January 2023
Orbit: 620 x 643 km, 98.1° (Epoch: 29 March)

Event Time Altitude Azimuth Distance (km) Brightness Sun altitude
Exits shadow 18:47:18 12° 229° (SW) 1,849 4.4 -34.7°
Maximum altitude 18:49:46 19° 268° (W) 1,525 4.2 -35.1°
Drops below altitude 10° 18:52:52 10° 313° (NW) 2,023 4.8 -35.6°
Sets 18:55:41 0° 332° (NNW) 2,943 5.5 -36.1°
